Location: Newark
(48.5156°N, 1.8989°W)
Time: 20:50:13
(UTC+00:00)

Vanguard 1 Rocket - Pass Details

Date: 17 November 2019
Orbit: 650 x 4226 km, 34.3° (Epoch: 14 December)

Event Time Altitude Azimuth Distance (km) Brightness Sun altitude
Exits shadow 04:14:54 13° 163° (SSE) 1,980 9.2 -30.1°
Maximum altitude 04:15:04 13° 160° (SSE) 1,987 9.3 -30.1°
Drops below altitude 10° 04:17:16 10° 134° (SE) 2,316 9.9 -29.7°
Sets 04:21:39 0° 107° (ESE) 3,684 11.6 -29.0°
